Angel Fire, NM

11:44 AM MST on November 21, 2019 (GMT -0700)
Angel Fire

Weather History for KAXX - June, 2019

Change the Weather History Date:

Monday, June 3, 2019

  Actual Average (KSKX) Record (KSKX)
Temperature  
Mean Temperature 52 °F -  
Max Temperature 70 °F 76 °F 86 °F (2014)
Min Temperature 34 °F 40 °F 33 °F (1999)
Degree Days  
Heating Degree Days 13    
Growing Degree Days 2 (Base 50)    
Moisture  
Dew Point 36 °F    
Average Humidity 65    
Maximum Humidity 97    
Minimum Humidity 19    
Precipitation  
Precipitation 0.00 in - - ()
Sea Level Pressure  
Sea Level Pressure 30.25 in    
Wind  
Wind Speed 4 mph (SSW)    
Max Wind Speed 25 mph    
Max Gust Speed 34 mph    
Visibility 10 miles    
Events Fog    
Averages and records for this station are not official NWS values.
T = Trace of Precipitation, MM = Missing Value Source: NWS Daily Summary

Daily Weather History Graph

Daily Weather History Graph

Search for Another Location

Airport or City:

Astronomy

Jun. 03, 2019 Rise Set
Actual Time 5:44 AM MDT 8:14 PM MDT
Civil Twilight 5:14 AM MDT 8:44 PM MDT
Nautical Twilight 4:36 AM MDT 9:22 PM MDT
Astronomical Twilight 3:55 AM MDT 10:03 PM MDT
Moon 6:05 AM MDT (6/3) 8:43 PM MDT (6/3)
Length of Visible Light 15h 30m
Length of Day
14h 30m
New Moon, 0% of the Moon is Illuminated
Jun 3
New Moon
Jun 10
First Quarter
Jun 17
Full
Jun 25
Last Quarter
Jul 2
New

Hourly Weather History & Observations

Time (MDT) Temp. Windchill Dew Point Humidity Pressure Visibility Wind Dir Wind Speed Gust Speed Precip Events Conditions
12:15 AM 43.0 °F - 39.9 °F 89% 30.29 in 10.0 mi Calm Calm - N/A   Unknown
12:35 AM 42.3 °F - 39.9 °F 91% 30.29 in 10.0 mi Calm Calm - N/A   Unknown
12:55 AM 42.1 °F - 39.2 °F 90% 30.29 in 10.0 mi Calm Calm - N/A   Unknown
1:15 AM 41.9 °F - 39.4 °F 91% 30.28 in 10.0 mi Calm Calm - N/A   Unknown
1:35 AM 41.0 °F - 38.7 °F 91% 30.28 in 10.0 mi Calm Calm - N/A   Unknown
1:55 AM 39.0 °F - 37.0 °F 93% 30.28 in 10.0 mi Calm Calm - N/A   Unknown
2:15 AM 38.5 °F - 36.9 °F 94% 30.27 in 10.0 mi Calm Calm - N/A   Unknown
2:35 AM 38.5 °F - 36.9 °F 94% 30.26 in 10.0 mi Calm Calm - N/A   Unknown
2:55 AM 36.5 °F 33.9 °F 35.1 °F 95% 30.27 in 10.0 mi SSE 3.5 mph - N/A   Unknown
3:15 AM 35.8 °F - 34.5 °F 95% 30.26 in 7.0 mi Calm Calm - N/A   Unknown
3:35 AM 35.6 °F - 34.3 °F 95% 30.26 in 10.0 mi Calm Calm - N/A   Unknown
3:55 AM 35.8 °F - 34.7 °F 96% 30.27 in 7.0 mi Calm Calm - N/A   Unknown
4:15 AM 36.7 °F - 35.6 °F 96% 30.27 in 10.0 mi Calm Calm - N/A   Unknown
4:35 AM 37.2 °F - 36.1 °F 96% 30.27 in 10.0 mi Calm Calm - N/A   Unknown
4:55 AM 38.1 °F - 36.7 °F 95% 30.27 in 10.0 mi Calm Calm - N/A   Unknown
5:15 AM 37.4 °F - 36.0 °F 95% 30.27 in 10.0 mi Calm Calm - N/A   Unknown
5:35 AM 35.4 °F - 34.2 °F 95% 30.26 in 10.0 mi Calm Calm - N/A   Unknown
5:55 AM 34.7 °F - 33.6 °F 96% 30.27 in 2.5 mi Calm Calm - N/A   Mist
6:15 AM 34.5 °F - 33.4 °F 96% 30.27 in 7.0 mi Calm Calm - N/A   Unknown
6:35 AM 37.0 °F - 36.0 °F 96% 30.27 in 7.0 mi Calm Calm - N/A   Unknown
6:55 AM 39.4 °F - 38.3 °F 96% 30.27 in 10.0 mi Calm Calm - N/A   Unknown
7:15 AM 39.6 °F - 38.5 °F 96% 30.27 in 0.2 mi Calm Calm - N/A Fog Fog
7:35 AM 40.5 °F - 39.6 °F 97% 30.27 in 0.2 mi Calm Calm - N/A Fog Fog
7:55 AM 43.0 °F - 42.1 °F 97% 30.27 in 10.0 mi Calm Calm - N/A   Unknown
8:15 AM 46.6 °F - 43.7 °F 90% 30.28 in 10.0 mi Calm Calm - N/A   Unknown
8:35 AM 48.9 °F - 44.1 °F 83% 30.28 in 10.0 mi Calm Calm - N/A   Unknown
8:55 AM 52.3 °F - 45.3 °F 77% 30.27 in 10.0 mi Calm Calm - N/A   Unknown
9:15 AM 55.8 °F - 46.8 °F 72% 30.26 in 10.0 mi Calm Calm - N/A   Unknown
9:35 AM 59.7 °F - 45.5 °F 59% 30.26 in 10.0 mi West 5.8 mph - N/A   Unknown
9:55 AM 62.2 °F - 43.0 °F 49% 30.26 in 10.0 mi West 8.1 mph - N/A   Unknown
10:15 AM 62.8 °F - 42.3 °F 47% 30.26 in 10.0 mi Calm Calm - N/A   Unknown
10:35 AM 63.9 °F - 41.0 °F 43% 30.26 in 10.0 mi West 4.6 mph 10.4 mph N/A   Unknown
10:55 AM 63.9 °F - 41.7 °F 44% 30.25 in 10.0 mi West 9.2 mph 18.4 mph N/A   Unknown
11:15 AM 65.5 °F - 36.1 °F 34% 30.25 in 10.0 mi West 11.5 mph 16.1 mph N/A   Unknown
11:35 AM 63.1 °F - 32.9 °F 32% 30.25 in 10.0 mi West 11.5 mph 27.6 mph N/A   Unknown
11:55 AM 60.8 °F - 39.4 °F 45% 30.25 in 10.0 mi SE 12.7 mph 20.7 mph N/A   Unknown
12:15 PM 62.8 °F - 40.1 °F 43% 30.24 in 10.0 mi ESE 10.4 mph - N/A   Unknown
12:30 PM 63.1 °F - 37.9 °F 39% 30.25 in 10.0 mi SE 15.0 mph 18.4 mph N/A   Unknown
12:55 PM 62.2 °F - 39.2 °F 43% 30.24 in 10.0 mi ESE 17.3 mph - N/A   Unknown
1:15 PM 67.6 °F - 37.9 °F 34% 30.23 in 10.0 mi ENE 13.8 mph 19.6 mph N/A   Unknown
1:35 PM 65.3 °F - 40.3 °F 40% 30.23 in 10.0 mi ESE 10.4 mph - N/A   Unknown
1:55 PM 67.6 °F - 36.9 °F 32% 30.23 in 10.0 mi South 9.2 mph - N/A   Unknown
2:15 PM 69.8 °F - 30.9 °F 24% 30.22 in 10.0 mi WSW 20.7 mph 28.8 mph N/A   Unknown
2:35 PM 69.6 °F - 28.0 °F 21% 30.21 in 10.0 mi West 25.3 mph 31.1 mph N/A   Unknown
2:55 PM 70.5 °F - 29.7 °F 22% 30.21 in 10.0 mi West 21.9 mph 27.6 mph N/A   Unknown
3:15 PM 70.3 °F - 32.2 °F 24% 30.20 in 10.0 mi West 12.7 mph 24.2 mph N/A   Unknown
3:35 PM 69.8 °F - 30.4 °F 23% 30.19 in 10.0 mi West 19.6 mph 27.6 mph N/A   Unknown
3:55 PM 70.7 °F - 29.5 °F 22% 30.18 in 10.0 mi WSW 19.6 mph 27.6 mph N/A   Unknown
4:15 PM 69.1 °F - 26.2 °F 20% 30.18 in 10.0 mi West 19.6 mph 26.5 mph N/A   Unknown
4:35 PM 67.6 °F - 23.7 °F 19% 30.19 in 10.0 mi SW 13.8 mph 24.2 mph N/A   Unknown
4:55 PM 66.4 °F - 25.7 °F 22% 30.19 in 10.0 mi West 15.0 mph 21.9 mph N/A   Unknown
5:15 PM 65.8 °F - 24.6 °F 21% 30.18 in 10.0 mi WSW 11.5 mph 26.5 mph N/A   Unknown
5:35 PM 65.1 °F - 27.0 °F 24% 30.21 in 10.0 mi WSW 21.9 mph 34.5 mph N/A   Unknown
5:55 PM 58.5 °F - 39.0 °F 48% 30.24 in 10.0 mi South 23.0 mph 32.2 mph N/A   Unknown
6:15 PM 59.4 °F - 28.8 °F 31% 30.23 in 10.0 mi SSW 16.1 mph 31.1 mph N/A   Unknown
6:35 PM 58.5 °F - 32.0 °F 37% 30.23 in 10.0 mi South 9.2 mph - N/A   Unknown
6:55 PM 56.7 °F - 34.9 °F 44% 30.22 in 10.0 mi SSW 17.3 mph - N/A   Unknown
7:15 PM 54.0 °F - 38.1 °F 55% 30.23 in 10.0 mi South 17.3 mph - N/A   Unknown
7:35 PM 52.3 °F - 38.5 °F 59% 30.22 in 10.0 mi SSW 10.4 mph - N/A   Unknown
7:55 PM 50.5 °F - 39.6 °F 66% 30.22 in 10.0 mi SSW 8.1 mph - N/A   Unknown
8:15 PM 48.9 °F - 39.2 °F 69% 30.23 in 10.0 mi SSW 6.9 mph - N/A   Unknown
8:35 PM 48.0 °F - 39.2 °F 72% 30.24 in 10.0 mi SSW 6.9 mph - N/A   Unknown
9:00 PM 47.3 °F - 38.3 °F 71% 30.26 in 10.0 mi SSW 6.9 mph - N/A   Unknown
9:15 PM 46.4 °F 45.2 °F 38.1 °F 73% 30.27 in 10.0 mi SSE 3.5 mph - N/A   Unknown
9:35 PM 47.3 °F - 37.4 °F 68% 30.28 in 10.0 mi SSE 3.5 mph - N/A   Unknown
9:55 PM 44.2 °F 42.7 °F 36.5 °F 74% 30.29 in 10.0 mi East 3.5 mph - N/A   Unknown
10:15 PM 42.1 °F - 36.5 °F 81% 30.30 in 10.0 mi Calm Calm - N/A   Unknown
10:35 PM 41.7 °F - 36.5 °F 82% 30.31 in 10.0 mi Calm Calm - N/A   Unknown
10:55 PM 40.5 °F 38.4 °F 35.6 °F 83% 30.31 in 10.0 mi SSE 3.5 mph - N/A   Unknown
11:15 PM 38.7 °F - 35.2 °F 87% 30.31 in 10.0 mi Calm Calm - N/A   Unknown
11:35 PM 40.3 °F - 36.7 °F 87% 30.31 in 10.0 mi Calm Calm - N/A   Unknown
11:55 PM 38.5 °F - 34.9 °F 87% 30.30 in 10.0 mi Calm Calm - N/A   Unknown